| time (UTC) | temp C | wind direction | speed KPH | gust KPH | rain 1hr cm | rain 24hr cm | rain mn cm | humidity % | barometer mb |
| 20260906141034 | 28 | 273 | 3.2 | 9.7 | 0.00 | 0.00 | 0.00 | 78 | 1013.3 |
| 20260906140535 | 29 | 291 | 1.6 | 8.0 | 0.00 | 0.00 | 0.00 | 79 | 1013.2 |
| 20260906140054 | 28 | 295 | 1.6 | 8.0 | 0.00 | 0.00 | 0.00 | 80 | 1013.3 |
| 20260906135532 | 28 | 329 | 3.2 | 6.4 | 0.00 | 0.00 | 0.00 | 81 | 1013.4 |
| 20260906135033 | 28 | 0 | 0.0 | 3.2 | 0.00 | 0.00 | 0.00 | 82 | 1013.2 |
| 20260906134609 | 28 | 0 | 0.0 | 8.0 | 0.00 | 0.00 | 0.00 | 83 | 1013.4 |
| 20260906134035 | 27 | 355 | 3.2 | 8.0 | 0.00 | 0.00 | 0.00 | 84 | 1013.4 |
| 20260906133537 | 27 | 10 | 1.6 | 6.4 | 0.00 | 0.00 | 0.00 | 85 | 1013.3 |
| 20260906133053 | 27 | 0 | 1.6 | 8.0 | 0.00 | 0.00 | 0.00 | 85 | 1013.2 |
| 20260906132536 | 27 | 296 | 1.6 | 8.0 | 0.00 | 0.00 | 0.00 | 86 | 1013.4 |
| 20260906132036 | 27 | 352 | 3.2 | 8.0 | 0.00 | 0.00 | 0.00 | 86 | 1013.5 |
| 20260906131546 | 27 | 327 | 3.2 | 8.0 | 0.00 | 0.00 | 0.00 | 86 | 1013.5 |
| 20260906131035 | 27 | 355 | 3.2 | 8.0 | 0.00 | 0.00 | 0.00 | 86 | 1013.4 |
| 20260906130535 | 27 | 0 | 1.6 | 8.0 | 0.00 | 0.00 | 0.00 | 87 | 1013.5 |
| 20260906130054 | 27 | 346 | 1.6 | 8.0 | 0.00 | 0.00 | 0.00 | 87 | 1013.5 |
| 20260906125535 | 27 | 329 | 1.6 | 8.0 | 0.00 | 0.00 | 0.00 | 87 | 1013.4 |
| 20260906125034 | 27 | 352 | 1.6 | 8.0 | 0.00 | 0.00 | 0.00 | 87 | 1013.4 |
| 20260906124550 | 26 | 338 | 3.2 | 8.0 | 0.00 | 0.00 | 0.00 | 87 | 1013.4 |
| 20260906124035 | 26 | 346 | 3.2 | 8.0 | 0.00 | 0.00 | 0.00 | 87 | 1013.2 |
| 20260906123531 | 26 | 360 | 1.6 | 8.0 | 0.00 | 0.00 | 0.00 | 87 | 1013.2 |
| 20260906123055 | 26 | 42 | 1.6 | 8.0 | 0.00 | 0.00 | 0.00 | 87 | 1013.2 |
| 20260906122535 | 26 | 9 | 3.2 | 8.0 | 0.00 | 0.00 | 0.00 | 87 | 1013.2 |
| 20260906122033 | 26 | 344 | 3.2 | 9.7 | 0.00 | 0.00 | 0.00 | 87 | 1013.1 |
| 20260906121545 | 26 | 343 | 3.2 | 9.7 | 0.00 | 0.00 | 0.00 | 87 | 1013.0 |
| 20260906121035 | 26 | 355 | 4.8 | 9.7 | 0.00 | 0.00 | 0.00 | 87 | 1013.1 |
| 20260906120537 | 26 | 337 | 4.8 | 9.7 | 0.00 | 0.00 | 0.00 | 87 | 1013.2 |
| 20260906115535 | 26 | 350 | 1.6 | 6.4 | 0.00 | 0.00 | 0.00 | 87 | 1013.0 |
| 20260906115038 | 26 | 0 | 3.2 | 6.4 | 0.00 | 0.00 | 0.00 | 87 | 1012.9 |
| 20260906114549 | 26 | 355 | 1.6 | 6.4 | 0.00 | 0.00 | 0.00 | 87 | 1012.8 |
| 20260906114034 | 26 | 22 | 1.6 | 6.4 | 0.00 | 0.00 | 0.00 | 87 | 1012.7 |
| 20260906113536 | 26 | 25 | 3.2 | 8.0 | 0.00 | 0.00 | 0.00 | 87 | 1012.5 |
| 20260906113047 | 26 | 351 | 3.2 | 9.7 | 0.00 | 0.00 | 0.00 | 87 | 1012.3 |
| 20260906112536 | 26 | 350 | 3.2 | 9.7 | 0.00 | 0.00 | 0.00 | 87 | 1012.3 |
| 20260906112032 | 26 | 49 | 4.8 | 9.7 | 0.00 | 0.00 | 0.00 | 87 | 1012.3 |
| 20260906111558 | 26 | 12 | 4.8 | 14.5 | 0.00 | 0.00 | 0.00 | 87 | 1012.2 |
| 20260906111035 | 26 | 14 | 4.8 | 14.5 | 0.00 | 0.00 | 0.00 | 87 | 1012.3 |
| 20260906110532 | 26 | 5 | 4.8 | 9.7 | 0.00 | 0.00 | 0.00 | 87 | 1012.3 |
| 20260906110056 | 26 | 346 | 3.2 | 11.3 | 0.00 | 0.00 | 0.00 | 87 | 1012.3 |
| 20260906105535 | 26 | 348 | 4.8 | 11.3 | 0.00 | 0.00 | 0.00 | 87 | 1012.3 |
| 20260906105032 | 26 | 351 | 3.2 | 9.7 | 0.00 | 0.00 | 0.00 | 87 | 1012.3 |
| 20260906104551 | 26 | 328 | 3.2 | 9.7 | 0.00 | 0.00 | 0.00 | 87 | 1012.2 |
| 20260906104035 | 26 | 9 | 4.8 | 11.3 | 0.00 | 0.00 | 0.00 | 86 | 1012.3 |
| 20260906103534 | 26 | 38 | 4.8 | 11.3 | 0.00 | 0.00 | 0.00 | 86 | 1012.2 |
| 20260906103101 | 26 | 355 | 3.2 | 8.0 | 0.00 | 0.00 | 0.00 | 86 | 1012.2 |
| 20260906102535 | 26 | 16 | 3.2 | 8.0 | 0.00 | 0.00 | 0.00 | 86 | 1012.1 |
| 20260906102034 | 26 | 349 | 3.2 | 8.0 | 0.00 | 0.00 | 0.00 | 86 | 1012.1 |
| 20260906101554 | 26 | 342 | 1.6 | 8.0 | 0.00 | 0.00 | 0.00 | 86 | 1012.1 |
| 20260906101034 | 26 | 342 | 3.2 | 8.0 | 0.00 | 0.00 | 0.00 | 86 | 1012.1 |
| 20260906100535 | 26 | 360 | 4.8 | 9.7 | 0.00 | 0.00 | 0.00 | 86 | 1012.1 |
| 20260906100056 | 26 | 351 | 3.2 | 12.9 | 0.00 | 0.00 | 0.00 | 86 | 1012.0 |
| 20260906095534 | 26 | 5 | 4.8 | 12.9 | 0.00 | 0.00 | 0.00 | 86 | 1012.0 |
| 20260906095034 | 26 | 349 | 4.8 | 11.3 | 0.00 | 0.00 | 0.00 | 86 | 1012.0 |
| 20260906094556 | 26 | 360 | 4.8 | 12.9 | 0.00 | 0.00 | 0.00 | 85 | 1011.9 |
| 20260906094033 | 27 | 5 | 4.8 | 12.9 | 0.00 | 0.00 | 0.00 | 85 | 1011.9 |
| 20260906093534 | 27 | 355 | 4.8 | 9.7 | 0.00 | 0.00 | 0.00 | 85 | 1011.9 |
| 20260906093100 | 27 | 352 | 3.2 | 9.7 | 0.00 | 0.00 | 0.00 | 85 | 1011.7 |
| 20260906092536 | 27 | 339 | 4.8 | 12.9 | 0.00 | 0.00 | 0.00 | 85 | 1011.8 |
| 20260906092035 | 27 | 338 | 4.8 | 12.9 | 0.00 | 0.00 | 0.00 | 85 | 1011.7 |
| 20260906091555 | 27 | 339 | 4.8 | 12.9 | 0.00 | 0.00 | 0.00 | 85 | 1011.7 |
| 20260906091034 | 27 | 338 | 1.6 | 9.7 | 0.00 | 0.00 | 0.00 | 85 | 1011.6 |
| 20260906090533 | 27 | 327 | 3.2 | 9.7 | 0.00 | 0.00 | 0.00 | 85 | 1011.6 |
| 20260906090111 | 27 | 355 | 4.8 | 9.7 | 0.00 | 0.00 | 0.00 | 85 | 1011.6 |
| 20260906085534 | 27 | 321 | 3.2 | 11.3 | 0.00 | 0.00 | 0.00 | 85 | 1011.5 |
| 20260906085034 | 27 | 333 | 4.8 | 11.3 | 0.00 | 0.00 | 0.00 | 85 | 1011.4 |
| 20260906084549 | 27 | 340 | 3.2 | 8.0 | 0.00 | 0.00 | 0.00 | 84 | 1011.4 |
| 20260906084034 | 27 | 347 | 3.2 | 9.7 | 0.00 | 0.00 | 0.00 | 84 | 1011.4 |
| 20260906083534 | 27 | 325 | 3.2 | 9.7 | 0.00 | 0.00 | 0.00 | 84 | 1011.5 |
| 20260906083046 | 27 | 347 | 4.8 | 9.7 | 0.00 | 0.00 | 0.00 | 84 | 1011.5 |
| 20260906082534 | 27 | 336 | 4.8 | 8.0 | 0.00 | 0.00 | 0.00 | 84 | 1011.6 |
| 20260906082034 | 27 | 328 | 4.8 | 8.0 | 0.00 | 0.00 | 0.00 | 84 | 1011.5 |
| 20260906081552 | 27 | 306 | 3.2 | 8.0 | 0.00 | 0.00 | 0.00 | 84 | 1011.5 |
| 20260906081034 | 27 | 310 | 3.2 | 9.7 | 0.00 | 0.00 | 0.00 | 84 | 1011.4 |
| 20260906080532 | 27 | 337 | 3.2 | 9.7 | 0.00 | 0.00 | 0.00 | 84 | 1011.4 |
| 20260906080106 | 27 | 348 | 3.2 | 8.0 | 0.00 | 0.00 | 0.00 | 84 | 1011.4 |
| 20260906075534 | 27 | 340 | 3.2 | 8.0 | 0.00 | 0.00 | 0.00 | 84 | 1011.4 |
| 20260906075034 | 27 | 340 | 3.2 | 9.7 | 0.00 | 0.00 | 0.00 | 84 | 1011.3 |
| 20260906074603 | 27 | 321 | 3.2 | 9.7 | 0.00 | 0.00 | 0.00 | 84 | 1011.3 |
| 20260906074034 | 27 | 327 | 3.2 | 9.7 | 0.00 | 0.00 | 0.00 | 83 | 1011.3 |
| 20260906073534 | 27 | 333 | 3.2 | 9.7 | 0.00 | 0.00 | 0.00 | 83 | 1011.3 |
| 20260906073103 | 27 | 330 | 3.2 | 8.0 | 0.00 | 0.00 | 0.00 | 83 | 1011.4 |
| 20260906072535 | 27 | 321 | 3.2 | 12.9 | 0.00 | 0.00 | 0.00 | 83 | 1011.4 |
| 20260906072034 | 27 | 315 | 4.8 | 12.9 | 0.00 | 0.00 | 0.00 | 83 | 1011.4 |
| 20260906071546 | 27 | 24 | 4.8 | 9.7 | 0.00 | 0.00 | 0.00 | 83 | 1011.4 |
| 20260906071032 | 27 | 304 | 3.2 | 6.4 | 0.00 | 0.00 | 0.00 | 83 | 1011.4 |
| 20260906070532 | 27 | 319 | 3.2 | 12.9 | 0.00 | 0.00 | 0.00 | 83 | 1011.4 |
| 20260906070054 | 27 | 330 | 3.2 | 12.9 | 0.00 | 0.00 | 0.00 | 82 | 1011.5 |
| 20260906065537 | 28 | 332 | 3.2 | 14.5 | 0.00 | 0.00 | 0.00 | 82 | 1011.5 |
| 20260906065031 | 28 | 340 | 3.2 | 14.5 | 0.00 | 0.00 | 0.00 | 82 | 1011.3 |
| 20260906064549 | 28 | 327 | 4.8 | 12.9 | 0.00 | 0.00 | 0.00 | 82 | 1011.3 |
| 20260906064034 | 28 | 329 | 4.8 | 12.9 | 0.00 | 0.00 | 0.00 | 82 | 1011.4 |
| 20260906063535 | 28 | 307 | 6.4 | 12.9 | 0.00 | 0.00 | 0.00 | 82 | 1011.4 |
| 20260906063057 | 28 | 284 | 8.0 | 16.1 | 0.00 | 0.00 | 0.00 | 82 | 1011.3 |
| 20260906062534 | 28 | 297 | 8.0 | 19.3 | 0.00 | 0.00 | 0.00 | 82 | 1011.4 |
| 20260906062033 | 28 | 282 | 11.3 | 19.3 | 0.00 | 0.00 | 0.00 | 82 | 1011.4 |
| 20260906061556 | 28 | 288 | 11.3 | 17.7 | 0.00 | 0.00 | 0.00 | 82 | 1011.4 |
| 20260906061032 | 28 | 273 | 12.9 | 16.1 | 0.00 | 0.00 | 0.00 | 82 | 1011.4 |
| 20260906060532 | 28 | 282 | 8.0 | 17.7 | 0.00 | 0.00 | 0.00 | 82 | 1011.5 |
| 20260906060055 | 28 | 281 | 6.4 | 17.7 | 0.00 | 0.00 | 0.00 | 82 | 1011.6 |
| 20260906055532 | 28 | 290 | 8.0 | 17.7 | 0.00 | 0.00 | 0.00 | 82 | 1011.7 |
| 20260906055035 | 28 | 271 | 11.3 | 17.7 | 0.00 | 0.00 | 0.00 | 82 | 1011.7 |
| 20260906054549 | 28 | 273 | 14.5 | 17.7 | 0.00 | 0.00 | 0.00 | 82 | 1011.6 |
| 20260906054037 | 28 | 256 | 12.9 | 17.7 | 0.00 | 0.00 | 0.00 | 83 | 1011.8 |
| 20260906053537 | 28 | 272 | 9.7 | 17.7 | 0.00 | 0.00 | 0.00 | 83 | 1011.9 |
| 20260906053045 | 27 | 279 | 8.0 | 16.1 | 0.00 | 0.00 | 0.00 | 83 | 1012.0 |
| 20260906052540 | 27 | 292 | 6.4 | 11.3 | 0.00 | 0.00 | 0.00 | 83 | 1012.2 |
| 20260906052037 | 27 | 292 | 6.4 | 11.3 | 0.00 | 0.00 | 0.00 | 83 | 1012.2 |
| 20260906051603 | 27 | 296 | 3.2 | 12.9 | 0.00 | 0.00 | 0.00 | 83 | 1012.2 |
| 20260906051037 | 27 | 281 | 4.8 | 12.9 | 0.00 | 0.00 | 0.00 | 83 | 1012.3 |
| 20260906050536 | 27 | 295 | 6.4 | 14.5 | 0.00 | 0.00 | 0.00 | 83 | 1012.3 |
| 20260906050104 | 27 | 290 | 6.4 | 16.1 | 0.00 | 0.00 | 0.00 | 83 | 1012.2 |
| 20260906045536 | 27 | 274 | 8.0 | 16.1 | 0.00 | 0.00 | 0.00 | 83 | 1012.1 |
| 20260906045037 | 27 | 284 | 8.0 | 12.9 | 0.00 | 0.00 | 0.00 | 83 | 1012.2 |
| 20260906044552 | 27 | 290 | 3.2 | 9.7 | 0.00 | 0.00 | 0.00 | 83 | 1012.3 |
| 20260906044040 | 27 | 296 | 3.2 | 11.3 | 0.00 | 0.00 | 0.00 | 83 | 1012.3 |
| 20260906043539 | 27 | 303 | 4.8 | 12.9 | 0.00 | 0.00 | 0.00 | 83 | 1012.3 |
| 20260906043053 | 27 | 313 | 4.8 | 12.9 | 0.00 | 0.00 | 0.00 | 83 | 1012.3 |
| 20260906042536 | 27 | 288 | 4.8 | 12.9 | 0.00 | 0.00 | 0.00 | 83 | 1012.4 |
| 20260906042036 | 27 | 295 | 4.8 | 12.9 | 0.00 | 0.00 | 0.00 | 83 | 1012.5 |
| 20260906041602 | 27 | 305 | 4.8 | 14.5 | 0.00 | 0.00 | 0.00 | 82 | 1012.6 |
| 20260906041036 | 27 | 333 | 4.8 | 14.5 | 0.00 | 0.00 | 0.00 | 82 | 1012.6 |
| 20260906040536 | 27 | 326 | 3.2 | 12.9 | 0.00 | 0.00 | 0.00 | 82 | 1012.7 |
| 20260906040053 | 27 | 325 | 4.8 | 14.5 | 0.00 | 0.00 | 0.00 | 82 | 1012.7 |
| 20260906035539 | 27 | 334 | 4.8 | 14.5 | 0.00 | 0.00 | 0.00 | 81 | 1012.7 |
| 20260906035037 | 28 | 5 | 4.8 | 17.7 | 0.00 | 0.00 | 0.00 | 81 | 1012.5 |
| 20260906034606 | 28 | 297 | 4.8 | 17.7 | 0.00 | 0.00 | 0.00 | 81 | 1012.7 |
| 20260906034037 | 28 | 352 | 6.4 | 17.7 | 0.00 | 0.00 | 0.00 | 81 | 1012.7 |
| 20260906033536 | 28 | 304 | 4.8 | 14.5 | 0.00 | 0.00 | 0.00 | 80 | 1012.7 |
| 20260906033046 | 28 | 326 | 4.8 | 16.1 | 0.00 | 0.00 | 0.00 | 80 | 1012.6 |
| 20260906032537 | 28 | 321 | 6.4 | 17.7 | 0.00 | 0.00 | 0.00 | 80 | 1012.7 |
| 20260906032037 | 28 | 335 | 6.4 | 17.7 | 0.00 | 0.00 | 0.00 | 80 | 1012.6 |
| 20260906031553 | 28 | 9 | 4.8 | 19.3 | 0.00 | 0.00 | 0.00 | 80 | 1012.7 |
| 20260906031037 | 28 | 310 | 6.4 | 19.3 | 0.00 | 0.00 | 0.00 | 80 | 1012.7 |
| 20260906030537 | 28 | 302 | 11.3 | 19.3 | 0.00 | 0.00 | 0.00 | 80 | 1012.6 |
| 20260906030048 | 28 | 295 | 11.3 | 17.7 | 0.00 | 0.00 | 0.00 | 80 | 1012.5 |
| 20260906025536 | 29 | 260 | 11.3 | 22.5 | 0.00 | 0.00 | 0.00 | 80 | 1012.5 |
| 20260906025038 | 29 | 281 | 9.7 | 22.5 | 0.00 | 0.00 | 0.00 | 80 | 1012.5 |
| 20260906024557 | 29 | 268 | 12.9 | 22.5 | 0.00 | 0.00 | 0.00 | 79 | 1012.4 |
| 20260906024036 | 29 | 267 | 16.1 | 25.7 | 0.00 | 0.00 | 0.00 | 80 | 1012.3 |
| 20260906023535 | 29 | 265 | 19.3 | 25.7 | 0.00 | 0.00 | 0.00 | 80 | 1012.3 |
| 20260906023056 | 29 | 265 | 17.7 | 24.1 | 0.00 | 0.00 | 0.00 | 80 | 1012.4 |
| 20260906022533 | 29 | 269 | 17.7 | 24.1 | 0.00 | 0.00 | 0.00 | 80 | 1012.4 |
| 20260906022035 | 29 | 261 | 19.3 | 27.4 | 0.00 | 0.00 | 0.00 | 80 | 1012.4 |
| 20260906021601 | 29 | 265 | 20.9 | 27.4 | 0.00 | 0.00 | 0.00 | 80 | 1012.3 |
| 20260906021036 | 29 | 255 | 20.9 | 27.4 | 0.00 | 0.00 | 0.00 | 80 | 1012.2 |
| 20260906020534 | 29 | 248 | 22.5 | 27.4 | 0.00 | 0.00 | 0.00 | 80 | 1012.0 |
| 20260906020055 | 29 | 257 | 20.9 | 27.4 | 0.00 | 0.00 | 0.00 | 81 | 1012.1 |
| 20260906015534 | 29 | 252 | 19.3 | 25.7 | 0.00 | 0.00 | 0.00 | 80 | 1012.1 |
| 20260906015034 | 29 | 258 | 19.3 | 25.7 | 0.00 | 0.00 | 0.00 | 79 | 1012.1 |
| 20260906014552 | 29 | 258 | 20.9 | 25.7 | 0.00 | 0.00 | 0.00 | 79 | 1012.0 |
| 20260906014035 | 29 | 258 | 20.9 | 25.7 | 0.00 | 0.00 | 0.00 | 79 | 1011.9 |
| 20260906013534 | 29 | 250 | 20.9 | 25.7 | 0.00 | 0.00 | 0.00 | 79 | 1011.8 |
| 20260906013107 | 29 | 253 | 20.9 | 25.7 | 0.00 | 0.00 | 0.00 | 79 | 1011.7 |
| 20260906012533 | 29 | 260 | 20.9 | 24.1 | 0.00 | 0.00 | 0.00 | 80 | 1011.8 |
| 20260906012034 | 29 | 253 | 19.3 | 24.1 | 0.00 | 0.00 | 0.00 | 80 | 1011.6 |
| 20260906011549 | 29 | 271 | 19.3 | 24.1 | 0.00 | 0.00 | 0.00 | 80 | 1011.6 |
| 20260906011035 | 29 | 275 | 19.3 | 24.1 | 0.00 | 0.00 | 0.00 | 81 | 1011.7 |
| 20260906010535 | 29 | 275 | 19.3 | 24.1 | 0.00 | 0.00 | 0.00 | 80 | 1011.6 |
| 20260906010047 | 29 | 265 | 19.3 | 25.7 | 0.00 | 0.00 | 0.00 | 81 | 1011.7 |
| 20260906005534 | 29 | 268 | 20.9 | 25.7 | 0.00 | 0.00 | 0.00 | 81 | 1011.7 |
| 20260906005034 | 29 | 255 | 20.9 | 25.7 | 0.00 | 0.00 | 0.00 | 81 | 1011.6 |
| 20260906004555 | 29 | 251 | 20.9 | 27.4 | 0.00 | 0.00 | 0.00 | 81 | 1011.6 |
| 20260906004033 | 29 | 253 | 20.9 | 30.6 | 0.00 | 0.00 | 0.00 | 81 | 1011.5 |
| 20260906003534 | 29 | 250 | 24.1 | 30.6 | 0.00 | 0.00 | 0.00 | 81 | 1011.4 |
| 20260906003050 | 29 | 238 | 22.5 | 30.6 | 0.00 | 0.00 | 0.00 | 80 | 1011.2 |
| 20260906002533 | 29 | 250 | 20.9 | 25.7 | 0.00 | 0.00 | 0.00 | 79 | 1011.4 |
| 20260906002031 | 29 | 239 | 20.9 | 25.7 | 0.00 | 0.00 | 0.00 | 79 | 1011.4 |
| 20260906001547 | 29 | 240 | 20.9 | 25.7 | 0.00 | 0.00 | 0.00 | 79 | 1011.4 |
| 20260906001034 | 29 | 242 | 19.3 | 25.7 | 0.00 | 0.00 | 0.00 | 78 | 1011.5 |
| 20260906000533 | 29 | 247 | 22.5 | 27.4 | 0.00 | 0.00 | 0.00 | 79 | 1011.5 |
| 20260906000107 | 29 | 242 | 20.9 | 27.4 | 0.00 | 0.00 | 0.00 | 80 | 1011.3 |
| 20260905235534 | 29 | 249 | 22.5 | 27.4 | 0.00 | 0.00 | 0.00 | 78 | 1011.5 |
| 20260905235034 | 29 | 241 | 22.5 | 27.4 | 0.00 | 0.00 | 0.00 | 78 | 1011.4 |
| 20260905234610 | 29 | 232 | 22.5 | 25.7 | 0.00 | 0.00 | 0.00 | 78 | 1011.4 |
| 20260905234034 | 29 | 229 | 20.9 | 25.7 | 0.00 | 0.00 | 0.00 | 78 | 1011.5 |
| 20260905233534 | 29 | 233 | 20.9 | 24.1 | 0.00 | 0.00 | 0.00 | 78 | 1011.4 |
| 20260905233050 | 29 | 237 | 19.3 | 24.1 | 0.00 | 0.00 | 0.00 | 78 | 1011.5 |
| 20260905232535 | 29 | 238 | 17.7 | 22.5 | 0.00 | 0.00 | 0.00 | 78 | 1011.6 |
| 20260905232035 | 29 | 230 | 17.7 | 22.5 | 0.00 | 0.00 | 0.00 | 78 | 1011.7 |
| 20260905231604 | 29 | 230 | 17.7 | 22.5 | 0.00 | 0.00 | 0.00 | 79 | 1011.6 |
| 20260905231034 | 29 | 236 | 17.7 | 22.5 | 0.00 | 0.00 | 0.00 | 80 | 1011.7 |
| 20260905230534 | 29 | 228 | 16.1 | 19.3 | 0.00 | 0.00 | 0.00 | 81 | 1011.9 |
| 20260905230104 | 29 | 234 | 16.1 | 19.3 | 0.00 | 0.00 | 0.00 | 80 | 1011.9 |
| 20260905225534 | 29 | 241 | 14.5 | 20.9 | 0.00 | 0.00 | 0.00 | 81 | 1011.9 |
| 20260905225034 | 29 | 237 | 16.1 | 22.5 | 0.00 | 0.00 | 0.00 | 80 | 1011.9 |
| 20260905224612 | 29 | 229 | 16.1 | 22.5 | 0.00 | 0.00 | 0.00 | 80 | 1011.9 |
| 20260905224034 | 29 | 224 | 16.1 | 20.9 | 0.00 | 0.00 | 0.00 | 80 | 1011.9 |
| 20260905223534 | 29 | 220 | 14.5 | 20.9 | 0.00 | 0.00 | 0.00 | 79 | 1012.0 |
| 20260905223057 | 29 | 238 | 14.5 | 20.9 | 0.00 | 0.00 | 0.00 | 79 | 1012.0 |
| 20260905222535 | 29 | 227 | 16.1 | 20.9 | 0.00 | 0.00 | 0.00 | 79 | 1012.0 |
| 20260905222034 | 29 | 239 | 16.1 | 19.3 | 0.00 | 0.00 | 0.00 | 78 | 1012.0 |
| 20260905221556 | 29 | 245 | 14.5 | 19.3 | 0.00 | 0.00 | 0.00 | 78 | 1012.1 |
| 20260905221036 | 29 | 240 | 12.9 | 20.9 | 0.00 | 0.00 | 0.00 | 79 | 1012.1 |
| 20260905220537 | 29 | 244 | 16.1 | 22.5 | 0.00 | 0.00 | 0.00 | 79 | 1012.0 |
| 20260905215536 | 29 | 235 | 17.7 | 22.5 | 0.00 | 0.00 | 0.00 | 80 | 1011.8 |
| 20260905215038 | 28 | 236 | 17.7 | 22.5 | 0.00 | 0.00 | 0.00 | 79 | 1011.8 |
| 20260905214546 | 28 | 230 | 17.7 | 22.5 | 0.00 | 0.00 | 0.00 | 80 | 1011.9 |
| 20260905214036 | 28 | 244 | 17.7 | 22.5 | 0.00 | 0.00 | 0.00 | 80 | 1011.9 |
| 20260905213533 | 28 | 232 | 17.7 | 27.4 | 0.00 | 0.00 | 0.00 | 82 | 1011.9 |
| 20260905213057 | 28 | 237 | 20.9 | 27.4 | 0.00 | 0.00 | 0.00 | 81 | 1011.9 |
| 20260905212535 | 28 | 246 | 20.9 | 27.4 | 0.00 | 0.00 | 0.00 | 80 | 1011.8 |
| 20260905212033 | 28 | 239 | 19.3 | 27.4 | 0.00 | 0.00 | 0.00 | 80 | 1011.9 |
| 20260905211554 | 28 | 243 | 20.9 | 27.4 | 0.00 | 0.00 | 0.00 | 81 | 1012.0 |
| 20260905211036 | 28 | 224 | 20.9 | 27.4 | 0.00 | 0.00 | 0.00 | 81 | 1012.0 |
| 20260905210536 | 28 | 232 | 22.5 | 27.4 | 0.00 | 0.00 | 0.00 | 82 | 1012.0 |
| 20260905205536 | 28 | 225 | 22.5 | 29.0 | 0.00 | 0.00 | 0.00 | 82 | 1012.1 |
| 20260905205038 | 28 | 226 | 24.1 | 29.0 | 0.00 | 0.00 | 0.00 | 82 | 1012.2 |
| 20260905204557 | 28 | 227 | 22.5 | 29.0 | 0.00 | 0.00 | 0.00 | 80 | 1012.1 |
| 20260905204035 | 29 | 230 | 17.7 | 22.5 | 0.00 | 0.00 | 0.00 | 79 | 1012.0 |
| 20260905203532 | 29 | 230 | 17.7 | 22.5 | 0.00 | 0.00 | 0.00 | 78 | 1011.9 |
| 20260905203108 | 29 | 251 | 16.1 | 20.9 | 0.00 | 0.00 | 0.00 | 78 | 1011.9 |
| 20260905202533 | 29 | 240 | 14.5 | 20.9 | 0.00 | 0.00 | 0.00 | 79 | 1012.1 |
| 20260905202036 | 29 | 240 | 16.1 | 20.9 | 0.00 | 0.00 | 0.00 | 79 | 1012.2 |
| 20260905201554 | 29 | 240 | 16.1 | 20.9 | 0.00 | 0.00 | 0.00 | 79 | 1012.3 |
| 20260905201036 | 29 | 246 | 16.1 | 20.9 | 0.00 | 0.00 | 0.00 | 79 | 1012.4 |
| 20260905200536 | 29 | 235 | 17.7 | 20.9 | 0.00 | 0.00 | 0.00 | 79 | 1012.4 |
| 20260905200049 | 29 | 241 | 16.1 | 19.3 | 0.00 | 0.00 | 0.00 | 78 | 1012.4 |
| 20260905195536 | 29 | 249 | 14.5 | 19.3 | 0.00 | 0.38 | 0.00 | 77 | 1012.5 |
| 20260905195034 | 29 | 240 | 12.9 | 17.7 | 0.00 | 0.38 | 0.00 | 78 | 1012.5 |
| 20260905194557 | 29 | 241 | 14.5 | 19.3 | 0.00 | 0.38 | 0.00 | 79 | 1012.5 |
| 20260905194033 | 29 | 227 | 14.5 | 20.9 | 0.00 | 0.38 | 0.00 | 78 | 1012.6 |
| 20260905193535 | 29 | 246 | 16.1 | 22.5 | 0.00 | 0.38 | 0.00 | 79 | 1012.7 |
| 20260905193054 | 29 | 253 | 17.7 | 22.5 | 0.00 | 0.38 | 0.00 | 78 | 1012.8 |
| 20260905192532 | 29 | 235 | 19.3 | 24.1 | 0.00 | 0.38 | 0.00 | 78 | 1012.9 |
| 20260905192035 | 29 | 249 | 19.3 | 24.1 | 0.00 | 0.38 | 0.00 | 77 | 1013.1 |
| 20260905191552 | 29 | 232 | 19.3 | 22.5 | 0.00 | 0.38 | 0.00 | 79 | 1013.1 |
| 20260905191035 | 29 | 236 | 17.7 | 24.1 | 0.00 | 0.38 | 0.00 | 77 | 1013.1 |
| 20260905190533 | 29 | 225 | 19.3 | 25.7 | 0.00 | 0.38 | 0.00 | 78 | 1013.1 |
| 20260905185533 | 29 | 229 | 20.9 | 24.1 | 0.00 | 0.38 | 0.00 | 77 | 1013.1 |
| 20260905185035 | 29 | 229 | 19.3 | 22.5 | 0.00 | 0.38 | 0.00 | 77 | 1013.1 |
| 20260905184550 | 29 | 227 | 17.7 | 22.5 | 0.00 | 0.38 | 0.00 | 77 | 1013.1 |
| 20260905184035 | 29 | 227 | 17.7 | 22.5 | 0.00 | 0.38 | 0.00 | 77 | 1013.1 |
| 20260905183533 | 29 | 227 | 16.1 | 19.3 | 0.00 | 0.38 | 0.00 | 76 | 1013.2 |
| 20260905183057 | 29 | 227 | 14.5 | 19.3 | 0.00 | 0.38 | 0.00 | 75 | 1013.3 |
| 20260905182536 | 29 | 240 | 14.5 | 20.9 | 0.00 | 0.38 | 0.00 | 76 | 1013.4 |
| 20260905182036 | 29 | 238 | 16.1 | 20.9 | 0.00 | 0.38 | 0.00 | 75 | 1013.5 |
| 20260905181551 | 29 | 246 | 16.1 | 19.3 | 0.00 | 0.38 | 0.00 | 75 | 1013.6 |
| 20260905181036 | 29 | 249 | 12.9 | 19.3 | 0.00 | 0.38 | 0.00 | 75 | 1013.7 |
| 20260905180536 | 29 | 258 | 12.9 | 19.3 | 0.00 | 0.38 | 0.00 | 74 | 1013.6 |
| 20260905180049 | 30 | 244 | 12.9 | 16.1 | 0.00 | 0.38 | 0.00 | 74 | 1013.7 |
| 20260905175537 | 29 | 253 | 12.9 | 17.7 | 0.00 | 0.38 | 0.00 | 74 | 1013.7 |
| 20260905175035 | 30 | 248 | 12.9 | 17.7 | 0.00 | 0.38 | 0.00 | 74 | 1013.8 |
| 20260905174601 | 30 | 253 | 12.9 | 16.1 | 0.00 | 0.38 | 0.00 | 75 | 1013.8 |
| 20260905174034 | 30 | 248 | 12.9 | 16.1 | 0.00 | 0.38 | 0.00 | 74 | 1013.9 |
| 20260905173535 | 30 | 265 | 11.3 | 14.5 | 0.00 | 0.38 | 0.00 | 73 | 1014.1 |
| 20260905173055 | 30 | 257 | 8.0 | 12.9 | 0.00 | 0.38 | 0.00 | 74 | 1014.1 |
| 20260905172536 | 30 | 252 | 6.4 | 12.9 | 0.00 | 0.38 | 0.00 | 73 | 1014.3 |
| 20260905172034 | 30 | 252 | 6.4 | 12.9 | 0.00 | 0.38 | 0.00 | 72 | 1014.3 |
| 20260905171615 | 29 | 256 | 9.7 | 12.9 | 0.00 | 0.38 | 0.00 | 73 | 1014.2 |
| 20260905171037 | 29 | 259 | 9.7 | 12.9 | 0.00 | 0.38 | 0.00 | 76 | 1014.1 |
| 20260905170536 | 29 | 271 | 8.0 | 14.5 | 0.00 | 0.38 | 0.00 | 75 | 1014.3 |
| 20260905170048 | 29 | 271 | 6.4 | 16.1 | 0.00 | 0.38 | 0.00 | 76 | 1014.4 |
| 20260905165535 | 29 | 272 | 9.7 | 16.1 | 0.00 | 0.38 | 0.00 | 78 | 1014.5 |
| 20260905165035 | 28 | 275 | 9.7 | 16.1 | 0.00 | 0.38 | 0.00 | 78 | 1014.4 |
| 20260905164551 | 28 | 267 | 11.3 | 17.7 | 0.00 | 0.38 | 0.00 | 80 | 1014.5 |
| 20260905164037 | 28 | 257 | 12.9 | 17.7 | 0.00 | 0.38 | 0.00 | 80 | 1014.4 |
| 20260905163534 | 28 | 273 | 14.5 | 17.7 | 0.00 | 0.38 | 0.00 | 80 | 1014.5 |
| 20260905163052 | 29 | 288 | 9.7 | 16.1 | 0.00 | 0.38 | 0.00 | 79 | 1014.6 |
| 20260905162538 | 28 | 288 | 11.3 | 16.1 | 0.00 | 0.38 | 0.00 | 82 | 1014.6 |
| 20260905162037 | 28 | 250 | 6.4 | 12.9 | 0.00 | 0.38 | 0.00 | 79 | 1014.6 |
| 20260905161553 | 28 | 238 | 8.0 | 12.9 | 0.00 | 0.38 | 0.00 | 78 | 1014.6 |
| 20260905161036 | 29 | 242 | 6.4 | 12.9 | 0.00 | 0.38 | 0.00 | 77 | 1014.7 |
| 20260905160533 | 29 | 235 | 6.4 | 11.3 | 0.00 | 0.38 | 0.00 | 77 | 1014.7 |
| 20260905160058 | 29 | 227 | 8.0 | 11.3 | 0.00 | 0.38 | 0.00 | 77 | 1014.7 |
| 20260905155534 | 29 | 232 | 6.4 | 11.3 | 0.00 | 0.38 | 0.00 | 77 | 1014.7 |
| 20260905155035 | 30 | 244 | 6.4 | 8.0 | 0.00 | 0.38 | 0.00 | 76 | 1014.7 |
| 20260905154603 | 29 | 248 | 4.8 | 8.0 | 0.00 | 0.38 | 0.00 | 76 | 1014.6 |
| 20260905154036 | 30 | 249 | 3.2 | 6.4 | 0.00 | 0.38 | 0.00 | 76 | 1014.6 |
| 20260905153535 | 30 | 263 | 3.2 | 6.4 | 0.00 | 0.38 | 0.00 | 75 | 1014.7 |
| 20260905153046 | 30 | 5 | 1.6 | 6.4 | 0.00 | 0.38 | 0.00 | 76 | 1014.7 |
| 20260905152537 | 29 | 0 | 1.6 | 6.4 | 0.00 | 0.38 | 0.00 | 76 | 1014.9 |
| 20260905152035 | 30 | 335 | 3.2 | 6.4 | 0.00 | 0.38 | 0.00 | 76 | 1015.0 |
| 20260905151552 | 29 | 16 | 1.6 | 6.4 | 0.00 | 0.38 | 0.00 | 75 | 1014.9 |
| 20260905151035 | 29 | 16 | 1.6 | 6.4 | 0.00 | 0.38 | 0.00 | 77 | 1015.0 |
| 20260905150534 | 29 | 17 | 1.6 | 8.0 | 0.00 | 0.38 | 0.00 | 78 | 1015.1 |
| 20260905150049 | 29 | 41 | 3.2 | 9.7 | 0.00 | 0.38 | 0.00 | 79 | 1015.0 |
| 20260905145538 | 29 | 31 | 3.2 | 16.1 | 0.00 | 0.38 | 0.00 | 78 | 1014.9 |
| 20260905145034 | 29 | 39 | 4.8 | 16.1 | 0.00 | 0.38 | 0.00 | 80 | 1014.9 |
| 20260905144546 | 29 | 42 | 6.4 | 16.1 | 0.00 | 0.38 | 0.00 | 80 | 1015.0 |
| 20260905144033 | 28 | 22 | 4.8 | 14.5 | 0.00 | 0.38 | 0.00 | 81 | 1015.0 |
| 20260905143536 | 28 | 5 | 6.4 | 14.5 | 0.00 | 0.38 | 0.00 | 81 | 1014.9 |
| 20260905143046 | 28 | 5 | 6.4 | 12.9 | 0.00 | 0.38 | 0.00 | 82 | 1015.1 |
| 20260905142535 | 28 | 31 | 3.2 | 12.9 | 0.00 | 0.38 | 0.00 | 82 | 1015.1 |
| 20260905142036 | 28 | 5 | 4.8 | 12.9 | 0.00 | 0.38 | 0.00 | 83 | 1014.9 |
| 20260905141551 | 28 | 350 | 4.8 | 14.5 | 0.00 | 0.38 | 0.00 | 83 | 1014.8 |